User: anonymous
Location: *
(40.4270°N, 9.4940°E)
Time: 16:13:40
(UTC+02:00)
Language:

Okean 2 - Orbit

View from above orbital plane
View from above orbital plane
View from above satellite
View from above satellite

Ground track
Ground track

The orbit data is extracted from the following two-line orbital elements,

1 20510U 90018A   14264.80757424  .00002500  00000-0  21906-3 0  8357
2 20510 082.5170 049.7896 0014531 112.4380 001.5666 14.96215462331820
Epoch (UTC): 21 September 2014 19:22:54
Eccentricity: 0.0014531
inclination: 82.5170°
perigee height: 568 km
apogee height: 589 km
right ascension of ascending node: 49.7896°
argument of perigee: 112.4380°
revolutions per day: 14.96215462
mean anomaly at epoch: 1.5666°
orbit number at epoch: 33182

The dashed part of the orbit path shows where the satellite is in the earth's shadow,  

DLR